Location: Newark
(15.4608°S, 41.1635°W)
Time: 12:38:54
(UTC+00:00)

Vanguard 2 Rocket - Visible Passes

Search period start: 07 March 2021 00:00
Search period end: 17 March 2021 00:00
Orbit: 554 x 3325 km, 32.9° (Epoch: 06 March)

Date Brightness Start Highest point End Pass type
(mag) Time Alt. Az. Time Alt. Az. Time Alt. Az.
07 Mar 7.4 22:52:43 10° SW 23:02:23 54° SSE 23:02:57 53° SE visible
08 Mar 8.4 21:50:30 10° SW 22:01:54 44° SSE 22:06:46 20° ESE visible
09 Mar 8.9 00:08:29 10° WSW 00:12:34 27° WSW 00:12:34 27° WSW visible
09 Mar 7.2 23:06:37 10° WSW 23:16:25 84° SSW 23:16:25 84° SSW visible
10 Mar 7.9 22:04:24 10° SW 22:16:29 63° SSE 22:20:17 30° E visible
11 Mar 9.4 00:23:14 10° W 00:26:06 19° W 00:26:06 19° W visible
11 Mar 8.7 21:01:41 10° SW 21:15:40 51° SSE 21:23:33 10° E visible
11 Mar 7.8 23:20:48 10° WSW 23:30:01 55° NW 23:30:01 55° NW visible
12 Mar 7.7 22:18:20 10° WSW 22:30:40 88° NNW 22:33:58 38° NE visible
13 Mar 9.9 00:39:20 10° W 00:39:47 11° WNW 00:39:47 11° WNW visible
13 Mar 8.3 21:15:37 10° WSW 21:30:12 69° SSE 21:37:57 11° ENE visible
13 Mar 8.6 23:35:33 10° WSW 23:43:47 32° NW 23:43:47 32° NW visible
14 Mar 8.2 22:32:33 10° WSW 22:44:25 56° NW 22:47:48 33° NNE visible
15 Mar 8.3 21:29:36 10° WSW 21:44:19 84° NNW 21:51:52 12° NE visible
15 Mar 9.4 23:51:29 10° W 23:57:10 17° NW 23:57:42 17° NW visible
16 Mar 8.8 22:47:19 10° WSW 22:57:47 35° NW 23:01:48 22° N visible
